Location: Sternwarte Hubelmatt
(47.0367°N, 8.3053°E)
Time: 20:22:15
(UTC+02:00)

DUCHIFAT 1 - Visible Passes

Search period start: 22 April 2024 00:00
Search period end: 02 May 2024 00:00
Orbit: 542 x 558 km, 98.1° (Epoch: 21 April)

Date Brightness Start Highest point End Pass type
(mag) Time Alt. Az. Time Alt. Az. Time Alt. Az.
22 Apr ? 04:54:48 10° ENE 04:56:45 13° E 04:58:40 10° ESE visible
23 Apr ? 04:50:59 10° ENE 04:52:28 12° E 04:53:56 10° ESE visible
24 Apr ? 04:47:24 10° ENE 04:48:08 10° E 04:48:51 10° E visible
